Regional Weather Roundup
Issued by NWS

Home | Current Version | Previous Version | Graphics & Text | Print | Product List | Glossary On
Versions: 1 2 3 4 5 6 7 8 9 10 11 12 13 14 15 16 17 18 19 20 21 22 23 24 25 26 27 28 29 30 31 32 33 34 35 36 37 38 39 40 41 42 43 44 45 46 47 48 49 50
000
ASUS43 KOAX 281602
RWRNE

WEATHER ROUNDUP FOR NEBRASKA
NATIONAL WEATHER SERVICE OMAHA NE
1100 AM CDT SAT MAY 28 2016

NOTES: SATELLITE DATA IS BEING USED TO AUGMENT CLOUD COVER ABOVE
       12000 FEET.
       "FAIR" INDICATES FEW OR NO CLOUDS BELOW 12,000 FEET WITH NO
       SIGNIFICANT WEATHER AND/OR OBSTRUCTIONS TO VISIBILITY.

  * THESE STATIONS DO NOT REPORT WEATHER SUCH AS RAIN...SNOW OR FOG.

NEZ001>004-019>022-054>056-281700-
NEBRASKA PANHANDLE

CITY           SKY/WX    TMP DP  RH WIND       PRES   REMARKS
SCOTTSBLUFF    SUNNY     63  46  54 NW9       29.97S
ALLIANCE       SUNNY     63  45  51 MISG      29.94S
CHADRON        SUNNY     65  48  54 SW5       29.92S
SIDNEY         SUNNY     61  44  53 VRB5      29.98S
$$

NEZ057>060-069>072-079>082-281700-
SOUTHWEST NEBRASKA

CITY           SKY/WX    TMP DP  RH WIND       PRES   REMARKS
NORTH PLATTE   SUNNY     66  54  65 W7        29.91S
IMPERIAL       SUNNY     63  50  62 W7        29.96R
LEXINGTON      MOSUNNY   65  56  71 W12       29.90R
MCCOOK         SUNNY     66  54  65 NW8       29.93S
$$

NEZ005>010-023>029-035>040-094-281700-
NORTH CENTRAL NEBRASKA

CITY           SKY/WX    TMP DP  RH WIND       PRES   REMARKS
VALENTINE      CLOUDY    63  51  65 NW10      29.88S
AINSWORTH      CLOUDY    61  53  76 NW10      29.88R
BROKEN BOW     CLOUDY    63  54  72 NW14      29.88R
ORD            CLOUDY    62  56  80 NW13      29.84R
$$

NEZ041-046>049-061>064-073>077-083>087-281700-
SOUTH CENTRAL NEBRASKA

CITY           SKY/WX    TMP DP  RH WIND       PRES   REMARKS
GRAND ISLAND   PTSUNNY   66  57  72 W16       29.85R
HASTINGS       PTSUNNY   66  57  72 W13       29.86R
KEARNEY *      CLOUDY    66  55  68 W15       29.88R
YORK           CLOUDY    64  57  77 W14       29.83R
$$

NEZ011>018-030>034-042>045-281700-
NORTHEAST NEBRASKA

CITY           SKY/WX    TMP DP  RH WIND       PRES   REMARKS
NORFOLK        CLOUDY    60  57  89 NW15G25   29.74S
ALBION         DRIZZLE   59  57  92 NW14G20   29.81R
BLAIR          CLOUDY    66  59  77 SW10      29.78S
FREMONT        CLOUDY    66  58  76 SW9       29.78S
TEKAMAH        CLOUDY    66  58  75 SW13      29.76S
$$

NEZ050>053-065>068-078-088>093-281700-
SOUTHEAST NEBRASKA

CITY           SKY/WX    TMP DP  RH WIND       PRES   REMARKS
LINCOLN        CLOUDY    67  56  67 SW13      29.81S
OMAHA EPPLEY   CLOUDY    67  58  72 SW12      29.78S
FALLS CITY     CLOUDY    66  59  78 W13       29.82R
$$

NEZ044-045-051>053-067-281700-
OMAHA AREA

CITY           SKY/WX    TMP DP  RH WIND       PRES   REMARKS
OMAHA EPPLEY   CLOUDY    67  58  72 SW12      29.78S
BLAIR          CLOUDY    66  59  77 SW10      29.78S
FREMONT        CLOUDY    66  58  76 SW9       29.78S
OFFUTT AFB     CLOUDY    65  59  80 SW7       29.78S
$$




USA.gov is the U.S. government's official web portal to all federal, state and local government web resources and services.